Regional Weather Roundup
Issued by NWS

Home | Current Version | Previous Version | Text Only | Print | Product List | Glossary Off
Versions: 1 2 3 4 5 6 7 8 9 10 11 12 13 14 15 16 17 18 19 20 21 22 23 24 25 26 27 28 29 30 31 32 33 34 35 36 37 38 39 40 41 42 43 44 45 46 47 48 49 50

000
ASUS43 KLOT 260710
RWRIL

ILLINOIS REGIONAL WEATHER ROUNDUP
NATIONAL WEATHER SERVICE CHICAGO/ROMEOVILLE IL
100 AM CST MON JAN 26 2015

NOTE: "FAIR" INDICATES FEW OR NO CLOUDS BELOW 12,000 FEET WITH NO
SIGNIFICANT WEATHER AND/OR OBSTRUCTIONS TO VISIBILITY.

* THESE STATIONS ARE NOT UNDER NWS QUALITY CONTROL. THEY ALSO MAY NOT
  REPORT WEATHER SUCH AS PRECIPITATION OR FOG.

ILZ001-002-007-009-015-016-024-260800-
NORTHWEST ILLINOIS

CITY           SKY/WX    TMP DP  RH WIND       PRES   REMARKS
MOLINE         MOCLDY    19  12  74 NW5       30.06R WCI  12
STERLING*      MOCLDY    18  12  79 N7        30.04R WCI   8
SAVANNA*       PTCLDY    19  12  76 NW3       30.06R
$$

ILZ003-004-008-010-011-017-018-260800-
NORTH CENTRAL ILLINOIS

CITY           SKY/WX    TMP DP  RH WIND       PRES   REMARKS
ROCKFORD       PTCLDY    16  10  77 N7        30.04S WCI   6
FREEPORT*      MOCLDY    14  10  83 NW6       30.05R WCI   5
ROCHELLE*      PTCLDY    16  12  86 N8        30.02S WCI   5
DE KALB*       PTCLDY    15  11  84 N6        30.00S WCI   6
PERU*          MOCLDY    19  14  81 N9        30.02S WCI   8
$$

ILZ005-006-012>014-019>023-260800-
NORTHEAST ILLINOIS

CITY           SKY/WX    TMP DP  RH WIND       PRES   REMARKS
CHICAGO-OHARE  MOCLDY    24  16  71 NE7       29.98R WCI  16
CHICAGO-MIDWAY MOCLDY    25  17  72 NE12      29.98R WCI  14
AURORA         CLEAR     17  11  77 NW9       30.00R WCI   6
LANSING*       CLOUDY    24  17  76 NE8       29.97R WCI  14
JOLIET*        CLOUDY    21  16  81 NW3       30.00R
WAUKEGAN       MOCLDY    22  14  71 NE6       29.99R WCI  14
DUPAGE AIRPORT CLOUDY    19  13  77 NW7       29.98R WCI  10
KANKAKEE*      CLOUDY    25  20  79 N6        29.97R WCI  18
WHEELING       MOCLDY    24  15  68 NE9       30.01R WCI  14
MORRIS*        CLOUDY    19  16  86 NW7       30.00R WCI  10
ROMEOVILLE*    CLOUDY    22  16  78 N7        29.99R WCI  14
NORTHERLY ISL    N/A     25  17  72 NE12        N/A  WCI  14
$$

LMZ740>746-260800-
SOUTHERN LAKE MICHIGAN

STATION/POSITION SKY/WX   TEMP    WIND        PRES    VSBY  WAVE
                          AIR SEA DIR/SP/G                  HT/PER
                          (F)     (DEG/KT/KT) (MB)    (MI)  (FT/S)
WAUKEGAN HARBOR            25      80/ 10/ 17   N/A
HARRISON CRIB              24      40/ 15/ 18   N/A
BURNHAM HARBOR             24      50/ 13/ 17   N/A
CALUMET HARBOR             24      20/ 11/ 18   N/A
MICHIGAN CITY              20      40/ 14/ 17   N/A
$$

ILZ025>027-034>036-040-047-049-050-058-095>099-260800-
WEST-CENTRAL ILLINOIS

CITY           SKY/WX    TMP DP  RH WIND       PRES   REMARKS
QUINCY         MOCLDY    25  20  81 NW8       30.05S WCI  16
GALESBURG*     CLOUDY    20  17  86 NW8       30.04S WCI  11
MACOMB*        CLOUDY    23  19  85 N10       30.08R WCI  12
JACKSONVILLE*  PTCLDY    27  20  77 NW8       30.03F WCI  18
PITTSFIELD*    PTCLDY    27  22  84 NW7       30.05S WCI  19
$$

ILZ028>032-037-038-041>044-048-051>054-059>061-260800-
CENTRAL ILLINOIS

CITY           SKY/WX    TMP DP  RH WIND       PRES   REMARKS
PONTIAC        CLOUDY    24  20  85 N12       30.00R WCI  13
BLOOMINGTON    MOCLDY    23  19  85 N10       29.98R WCI  12
DECATUR        CLOUDY    29  27  92 N12       29.97S WCI  19
PEORIA         MOCLDY    22  15  75 N7        30.02F WCI  13
LACON*         CLOUDY    19  13  77 N9        30.02S WCI   9
LINCOLN*       PTCLDY    26  20  79 NW6       30.02R WCI  19
SPRINGFIELD    PTCLDY    25  19  78 NW9       30.00F WCI  15
TAYLORVILLE    CLOUDY    28  23  80 NW14      30.00R WCI  17
$$

ILZ033-039-045-046-055>057-062-063-260800-
EAST-CENTRAL ILLINOIS

CITY           SKY/WX    TMP DP  RH WIND       PRES   REMARKS
CHAMPAIGN      CLOUDY    27  22  81 N10       29.93F WCI  17
DANVILLE*      CLOUDY    26  22  87 N10       29.91S WCI  16
RANTOUL*       CLOUDY    28  23  79 N12       29.94S WCI  18
MATTOON        CLOUDY    28  24  85 N18G24    29.92S WCI  15
PARIS*         CLOUDY    28  25  87 NE7       29.93S WCI  21
$$

ILZ079-100>102-260800-
SOUTHWEST ILLINOIS

CITY           SKY/WX    TMP DP  RH WIND       PRES   REMARKS
ALTON          CLEAR     28  22  76 NW8G18    30.03R WCI  20
BELLEVILLE     CLOUDY    30  25  82 N16       30.00S WCI  18
CAHOKIA*       CLOUDY    31  24  75 N12       30.03R WCI  22
SPARTA*        CLOUDY    31  26  81 NW15G22   30.00S WCI  20
$$

ILZ064>066-069>071-074>076-080>082-084>086-088>090-092>094-260800-
SOUTH-CENTRAL ILLINOIS

CITY           SKY/WX    TMP DP  RH WIND       PRES   REMARKS
CARBONDALE     CLOUDY    32  27  81 N16G26    29.98R WCI  21
CAIRO*         CLOUDY    37  32  83 NW23      29.95R WCI  25
EFFINGHAM*     CLOUDY    31  24  75 NW14G20   29.95F WCI  20
MARION         CLOUDY    34  28  80 NW10G20   29.97R WCI  26
MT. VERNON     CLOUDY    32  25  74 N8G18     29.95S WCI  25
CENTRALIA*     CLOUDY    31  26  81 N15G23    29.96S WCI  20
SALEM*         CLOUDY    33  28  82 N14G21    29.96S WCI  23
METROPOLIS*    CLOUDY    35  34  96 NW13      29.92R WCI  26
$$

ILZ067-068-072-073-078-083-087-091-260800-
SOUTHEAST ILLINOIS

CITY           SKY/WX    TMP DP  RH WIND       PRES   REMARKS
LAWRENCEVILLE  CLOUDY    29  23  78 N17G26    29.90R WCI  17
FLORA*         CLOUDY    31  27  84 N15G25    29.94S WCI  20
FAIRFIELD*     CLOUDY    32  28  84 N10       29.92R WCI  23
HARRISBURG*    CLOUDY    33  31  91 NW17      29.94R WCI  22
ROBINSON*      CLOUDY    28  24  83 N15       29.92R WCI  17
CARMI*         CLOUDY    34  30  86 NW17      29.91R WCI  23
$$

ABBREVIATIONS USED IN REMARKS
   TC - TEMPERATURE IN CELSIUS
  WCI - WIND CHILL INDEX
   HX - HEAT INDEX
  VSB - VISIBILITY
$$



USA.gov is the U.S. government's official web portal to all federal, state and local government web resources and services.